Owosso, MI

1:48 AM EDT on May 30, 2017 (GMT -0400)
Owosso

Weather History for KRNP - February, 2014

Change the Weather History Date:

Wednesday, February 12, 2014

  Actual Average (KFNT) Record (KFNT)
Temperature  
Mean Temperature 4 °F -  
Max Temperature 22 °F 30 °F 58 °F (1999)
Min Temperature -13 °F 12 °F -22 °F (1967)
Degree Days  
Heating Degree Days 60    
Moisture  
Dew Point -2 °F    
Average Humidity 64    
Maximum Humidity 84    
Minimum Humidity 44    
Precipitation  
Precipitation 0.00 in - - ()
Sea Level Pressure  
Sea Level Pressure 30.23 in    
Wind  
Wind Speed 3 mph (SSE)    
Max Wind Speed 9 mph    
Max Gust Speed -    
Visibility 10 miles    
Events Snow    
Averages and records for this station are not official NWS values.
T = Trace of Precipitation, MM = Missing Value Source: NWS Daily Summary

Daily Weather History Graph

Daily Weather History Graph

Search for Another Location

Airport or City:

Trip Planner

Search our weather history database for the weather conditions in past years. The results will help you decide how hot, cold, wet, or windy it might be!

Date:

Astronomy

Feb. 12, 2014 Rise Set
Actual Time 7:38 AM EST 6:03 PM EST
Civil Twilight 7:08 AM EST 6:33 PM EST
Nautical Twilight 6:35 AM EST 7:06 PM EST
Astronomical Twilight 6:02 AM EST 7:39 PM EST
Moon 4:15 PM EST (2/12) 5:55 AM EST (2/12)
Length of Visible Light 11h 24m
Length of Day
10h 25m
Waxing Gibbous, 95% of the Moon is Illuminated
Feb 12
Waxing Gibbous
Feb 14
Full
Feb 22
Last Quarter
Mar 1
New
Mar 8
First Quarter

Hourly Weather History & Observations

Time (EST) Temp. Windchill Dew Point Humidity Pressure Visibility Wind Dir Wind Speed Gust Speed Precip Events Conditions
12:15 AM -5.8 °F - -10.3 °F 81% 30.42 in 10.0 mi Calm Calm - N/A   Clear
12:35 AM -4.9 °F - -9.6 °F 80% 30.41 in 10.0 mi Calm Calm - N/A   Clear
12:54 AM -1.7 °F -9.7 °F -6.0 °F 82% 30.41 in 10.0 mi South 3.5 mph - N/A   Clear
1:15 AM 1.0 °F -8.7 °F -3.8 °F 80% 30.41 in 10.0 mi SSE 4.6 mph - N/A   Clear
1:35 AM 0.9 °F -8.9 °F -4.5 °F 78% 30.40 in 10.0 mi SSE 4.6 mph - N/A   Clear
1:54 AM 0.9 °F -8.9 °F -5.1 °F 76% 30.39 in 10.0 mi SSE 4.6 mph - N/A   Clear
2:15 AM 1.0 °F -8.7 °F -4.9 °F 76% 30.39 in 10.0 mi South 4.6 mph - N/A   Clear
2:34 AM 0.9 °F -6.9 °F -5.1 °F 76% 30.39 in 10.0 mi South 3.5 mph - N/A   Clear
2:55 AM 0.1 °F -7.7 °F -5.6 °F 77% 30.39 in 10.0 mi SSE 3.5 mph - N/A   Clear
3:15 AM 0.5 °F - -5.3 °F 77% 30.39 in 10.0 mi Calm Calm - N/A   Clear
3:34 AM -2.0 °F - -7.4 °F 78% 30.37 in 10.0 mi Calm Calm - N/A   Clear
3:55 AM -3.5 °F -11.8 °F -8.1 °F 80% 30.37 in 10.0 mi SE 3.5 mph - N/A   Clear
4:14 AM -6.9 °F - -11.4 °F 81% 30.36 in 10.0 mi Calm Calm - N/A   Clear
4:35 AM -8.0 °F - -12.3 °F 81% 30.37 in 10.0 mi Calm Calm - N/A   Clear
4:55 AM -8.7 °F - -13.2 °F 81% 30.36 in 10.0 mi Calm Calm - N/A   Clear
5:14 AM -9.0 °F - -13.7 °F 80% 30.36 in 10.0 mi Calm Calm - N/A   Clear
5:35 AM -8.9 °F - -13.4 °F 81% 30.37 in 10.0 mi Calm Calm - N/A   Clear
5:55 AM -11.2 °F - -15.9 °F 80% 30.37 in 10.0 mi Calm Calm - N/A   Clear
6:14 AM -10.5 °F - -15.2 °F 80% 30.37 in 10.0 mi Calm Calm - N/A   Clear
6:35 AM -11.6 °F - -16.8 °F 78% 30.37 in 10.0 mi Calm Calm - N/A   Clear
6:55 AM -13.5 °F - -19.1 °F 76% 30.36 in 10.0 mi Calm Calm - N/A   Clear
7:14 AM -10.7 °F -20.0 °F -15.5 °F 79% 30.35 in 10.0 mi East 3.5 mph - N/A   Clear
7:35 AM -12.6 °F - -17.7 °F 78% 30.34 in 10.0 mi Calm Calm - N/A   Clear
7:54 AM -13.7 °F - -19.1 °F 77% 30.33 in 10.0 mi Calm Calm - N/A   Clear
8:15 AM -12.3 °F - -17.5 °F 78% 30.32 in 7.0 mi Calm Calm - N/A   Clear
8:35 AM -10.3 °F - -15.0 °F 80% 30.32 in 7.0 mi Calm Calm - N/A   Clear
8:54 AM -6.7 °F - -11.2 °F 81% 30.31 in 5.0 mi Calm Calm - N/A Snow Light Snow
9:15 AM -2.6 °F - -6.7 °F 82% 30.31 in 5.0 mi Calm Calm - N/A Snow Light Snow
9:34 AM 1.9 °F -9.2 °F -2.2 °F 83% 30.30 in 10.0 mi SSE 5.8 mph - N/A   Clear
9:55 AM 3.7 °F -7.1 °F -0.0 °F 84% 30.31 in 10.0 mi South 5.8 mph - N/A   Clear
10:15 AM 5.7 °F -4.8 °F 1.9 °F 84% 30.30 in 10.0 mi SSE 5.8 mph - N/A   Clear
10:34 AM 8.1 °F -0.5 °F 2.8 °F 79% 30.29 in 10.0 mi South 4.6 mph - N/A   Clear
10:55 AM 10.2 °F -0.6 °F 2.3 °F 70% 30.29 in 10.0 mi SSE 6.9 mph - N/A   Clear
11:15 AM 12.2 °F -0.2 °F 2.3 °F 65% 30.28 in 10.0 mi SSE 9.2 mph - N/A   Clear
11:34 AM 13.6 °F 1.6 °F 2.8 °F 62% 30.27 in 10.0 mi SSE 9.2 mph - N/A   Clear
11:55 AM 14.9 °F 4.0 °F 2.7 °F 58% 30.26 in 10.0 mi South 8.1 mph - N/A   Clear
12:14 PM 16.0 °F 5.3 °F 2.8 °F 56% 30.24 in 10.0 mi South 8.1 mph - N/A   Clear
12:35 PM 17.6 °F 7.3 °F 3.0 °F 53% 30.22 in 10.0 mi SSE 8.1 mph - N/A   Clear
12:55 PM 18.1 °F 10.0 °F 3.0 °F 52% 30.21 in 10.0 mi SSW 5.8 mph - N/A   Clear
1:14 PM 19.4 °F 8.6 °F 3.6 °F 50% 30.20 in 10.0 mi SSW 9.2 mph - N/A   Clear
1:35 PM 19.0 °F 8.2 °F 2.5 °F 49% 30.18 in 10.0 mi SSW 9.2 mph - N/A   Clear
1:55 PM 20.1 °F 11.3 °F 3.2 °F 48% 30.17 in 10.0 mi South 6.9 mph - N/A   Clear
2:14 PM 20.3 °F 12.5 °F 2.5 °F 46% 30.14 in 10.0 mi South 5.8 mph - N/A   Clear
2:35 PM 21.0 °F 11.4 °F 3.2 °F 46% 30.14 in 10.0 mi South 8.1 mph - N/A   Clear
2:55 PM 21.2 °F 12.6 °F 3.2 °F 46% 30.13 in 10.0 mi South 6.9 mph - N/A   Clear
3:14 PM 21.7 °F 12.3 °F 3.7 °F 46% 30.12 in 10.0 mi South 8.1 mph - N/A   Scattered Clouds
3:35 PM 22.1 °F 13.7 °F 3.7 °F 45% 30.12 in 10.0 mi South 6.9 mph - N/A   Mostly Cloudy
3:54 PM 22.6 °F 14.3 °F 3.9 °F 45% 30.12 in 10.0 mi South 6.9 mph - N/A   Mostly Cloudy
4:14 PM 22.8 °F 16.7 °F 4.3 °F 45% 30.12 in 10.0 mi South 4.6 mph - N/A   Scattered Clouds
4:35 PM 22.8 °F 13.6 °F 4.1 °F 45% 30.11 in 10.0 mi South 8.1 mph - N/A   Mostly Cloudy
4:54 PM 22.8 °F 16.7 °F 4.5 °F 45% 30.11 in 10.0 mi South 4.6 mph - N/A   Overcast
5:15 PM 22.8 °F 16.7 °F 4.5 °F 45% 30.11 in 10.0 mi SSE 4.6 mph - N/A   Overcast
5:35 PM 22.8 °F 15.5 °F 3.9 °F 44% 30.10 in 10.0 mi SSE 5.8 mph - N/A   Mostly Cloudy
5:54 PM 22.5 °F 17.8 °F 4.5 °F 46% 30.11 in 10.0 mi SSE 3.5 mph - N/A   Mostly Cloudy
6:15 PM 22.5 °F 17.8 °F 4.5 °F 46% 30.10 in 10.0 mi SSE 3.5 mph - N/A   Mostly Cloudy
6:35 PM 22.1 °F - 4.1 °F 46% 30.10 in 10.0 mi Calm Calm - N/A   Mostly Cloudy
6:54 PM 21.7 °F - 4.1 °F 47% 30.10 in 10.0 mi Calm Calm - N/A   Scattered Clouds
7:15 PM 21.2 °F - 4.1 °F 48% 30.10 in 10.0 mi Calm Calm - N/A   Clear
7:35 PM 20.1 °F 15.2 °F 3.6 °F 49% 30.11 in 10.0 mi South 3.5 mph - N/A   Clear
7:54 PM 18.7 °F - 3.4 °F 51% 30.11 in 10.0 mi Calm Calm - N/A   Scattered Clouds
8:15 PM 16.3 °F - 3.2 °F 56% 30.11 in 10.0 mi Calm Calm - N/A   Clear
8:34 PM 16.5 °F - 4.3 °F 59% 30.11 in 10.0 mi Calm Calm - N/A   Mostly Cloudy
8:55 PM 19.0 °F 11.1 °F 5.5 °F 56% 30.11 in 10.0 mi SSE 5.8 mph - N/A   Overcast
9:14 PM 19.4 °F 12.8 °F 5.5 °F 55% 30.11 in 10.0 mi SSE 4.6 mph - N/A   Overcast
9:35 PM 19.2 °F 11.3 °F 5.9 °F 56% 30.09 in 10.0 mi SSE 5.8 mph - N/A   Overcast
9:55 PM 19.2 °F 11.3 °F 5.9 °F 56% 30.10 in 10.0 mi SSE 5.8 mph - N/A   Overcast
10:14 PM 19.0 °F 12.3 °F 6.3 °F 58% 30.09 in 10.0 mi SSE 4.6 mph - N/A   Mostly Cloudy
10:35 PM 18.9 °F - 6.6 °F 59% 30.08 in 10.0 mi Calm Calm - N/A   Mostly Cloudy
10:55 PM 18.9 °F 13.7 °F 6.8 °F 59% 30.07 in 10.0 mi South 3.5 mph - N/A   Overcast
11:14 PM 18.9 °F 12.1 °F 7.0 °F 60% 30.06 in 10.0 mi SSE 4.6 mph - N/A   Overcast
11:35 PM 18.9 °F 13.7 °F 7.3 °F 61% 30.05 in 10.0 mi SSE 3.5 mph - N/A   Overcast
11:55 PM 18.9 °F - 7.3 °F 61% 30.05 in 10.0 mi Calm Calm - N/A   Overcast